sat.trackr.live / text

‹ back to catalog

STARLINK-3143

NORAD 49738 · 2021-115Q

PAYLOAD ACTIVE UNKNOWN

§ Identity

Operator
Country
US
Launch date
2021-12-02
Launch site
AFETR
Launch vehicle
Mass (kg)
RCS (m²)

Purposes: comms

External: N2YO · Heavens-Above · Gunter

§ Orbital elements

Epoch: 2026-05-25T01:16:48.360864Z

Period
95.36 min
Inclination
53.2142°
Eccentricity
0.0002394
Mean motion
15.10109624 rev/d
Perigee alt
534.2 km
Apogee alt
537.5 km
Semi-major
6,914.0 km
B*
8.1700e-4
RAAN
166.3095°
Arg perigee
47.2116°
Mean anomaly
312.9078°
Rev number
24,706

§ Raw data

STARLINK-31431 49738U 21115Q   26145.05333751  .00013198  00000+0  81700-3 0  99962 49738  53.2142 166.3095 0002394  47.2116 312.9078 15.10109624247067

JSON: /api/v1/satellites/49738 · /tle

For live sub-satellite position, see the globe view (requires WebGL).

§ Visibility from observer

Set your observer location to see the next 7 days of passes ≥ 10°. The values pass through the URL so the page stays shareable.

No JS? Fill the form by hand. The geolocation button needs JavaScript.